Regional Weather Roundup
Issued by NWS

Home | Current Version | Previous Version | Text Only | Print | Product List | Glossary On
Versions: 1 2 3 4 5 6 7 8 9 10 11 12 13 14 15 16 17 18 19 20 21 22 23 24 25 26 27 28 29 30 31 32 33 34 35 36 37 38 39 40 41 42 43 44 45 46 47 48 49 50
000
ASUS43 KLMK 200610
RWRKY
KENTUCKY REGIONAL WEATHER ROUNDUP
NATIONAL WEATHER SERVICE LOUISVILLE KY
200 AM EDT WED AUG 20 2014

NOTE "FAIR" INDICATES FEW OR NO CLOUDS BELOW 12,000 FEET
WITH NO SIGNIFICANT WEATHER AND/OR OBSTRUCTIONS TO VISIBILITY.

KYZ001>023-026-027-061>063-070>075-200700-
WESTERN AND SOUTH CENTRAL KENTUCKY

CITY           SKY/WX    TMP DP  RH WIND       PRES   REMARKS
PADUCAH        FAIR      79  73  82 SW6       29.84S
HENDERSON      FAIR      70  66  88 CALM      29.86R
OWENSBORO      FAIR      74  72  93 CALM      29.87S
HOPKINSVILLE   FAIR      76  76  97 S3        29.89R
BOWLING GREEN  FAIR      79  73  82 S5        29.89F
GLASGOW        FAIR      73  73 100 CALM      29.90F FOG
$$

KYZ024-025-028>034-038-045-046-053-200700-
NORTH CENTRAL KENTUCKY

CITY           SKY/WX    TMP DP  RH WIND       PRES   REMARKS
LOUISVILLE/SDF FAIR      78  68  71 SW8       29.85S
LOUISVILLE/LOU FAIR      78  68  71 SW8       29.85S
FORT KNOX      FAIR      69  64  85 S7        29.87S
$$

KYZ035>037-039>044-047>052-055>060-089>105-200700-
NORTHEAST KENTUCKY

CITY           SKY/WX    TMP DP  RH WIND       PRES   REMARKS
LEXINGTON      TSTM      77  69  76 SW10      29.89S
COVINGTON      TSTM      66  64  94 NW18G32   29.93R VSB 1
FRANKFORT      FAIR      74  70  87 SW6       29.86S
$$

KYZ054-064>069-076>088-106>120-200700-
SOUTHEAST KENTUCKY

CITY           SKY/WX    TMP DP  RH WIND       PRES   REMARKS
JACKSON        FAIR      72  69  90 CALM      29.94S
LONDON         FAIR      71  68  90 CALM      29.94F FOG
SOMERSET       FAIR      72  72 100 CALM      29.94S
MIDDLESBORO    FAIR      67  66  97 CALM      29.98S FOG
MONTICELLO     FAIR      72  71  96 CALM      29.94F FOG
$$



USA.gov is the U.S. government's official web portal to all federal, state and local government web resources and services.